RH
19 16 12 10 11 10 8 9 9 10 9 10 7 6 6 9 8 13 42 47 46 49 26 10 11 14 17 20 23 30 33 24 17 22 20 15 13 12 12 12 12 11 12 14 25
18 15 11 9 9 8 8 9 11 9 9 9 8 8 6 9 11 12 27 40 40 36 14 15 16 17 21 18 23 39 33 21 20 18 17 15 14 15 13 14 15 14 23 27 29
15 12 11 9 8 7 9 10 9 8 8 9 9 9 11 16 12 11 25 27 15 11 13 16 16 16 16 19 21 24 29 20 30 21 19 18 16 18 16 15 16 17 21 28 28
15 12 9 7 7 7 9 10 8 8 8 7 10 13 12 11 15 13 15 12 7 10 13 15 16 14 18 18 22 21 28 25 30 20 19 18 19 17 18 13 14 17 19 25 26
18 12 8 7 8 9 9 10 10 9 8 7 12 14 15 20 16 16 15 11 7 11 17 17 16 15 16 19 21 18 22 27 23 19 18 19 19 19 21 18 16 15 17 19 18
17 16 12 10 9 8 8 10 10 9 9 7 12 14 15 24 16 17 15 12 9 12 16 19 18 16 17 18 20 22 26 24 22 21 20 20 21 20 15 17 20 18 19 18 18
17 18 17 13 13 12 8 10 10 9 10 8 14 14 17 16 16 18 15 14 13 11 13 16 19 16 17 15 20 25 21 22 21 18 21 22 28 27 19 16 21 18 16 17 19
19 16 16 13 13 10 9 14 9 10 12 14 16 13 16 14 16 18 16 14 12 14 12 15 17 18 15 15 18 20 30 34 23 27 23 24 35 23 22 17 20 18 17 17 19
22 18 17 14 15 10 9 9 14 10 13 14 16 15 17 15 16 18 19 18 16 16 17 19 19 26 27 39 37 35 33 30 34 29 26 24 35 26 21 17 17 18 18 18 18
27 21 18 14 16 11 10 9 12 13 14 15 15 19 20 21 18 20 20 19 20 21 18 25 34 30 32 44 51 27 30 33 37 34 30 34 34 28 28 22 19 19 19 19 18
28 25 19 16 15 13 17 20 28 24 18 21 20 20 21 19 21 21 21 22 23 28 30 32 35 27 24 24 25 27 32 37 38 33 35 35 40 35 33 34 29 20 20 20 20
28 26 22 18 16 16 17 35 38 27 28 21 18 20 18 22 30 26 22 25 30 32 32 36 29 23 23 26 25 28 35 50 44 33 37 42 46 36 22 24 33 24 23 23 18
27 29 23 21 18 17 24 33 35 38 32 28 21 21 22 24 30 32 27 31 32 40 35 36 24 23 24 27 32 37 38 38 40 42 44 60 52 32 16 16 20 24 24 21 22
21 30 25 25 21 24 20 25 30 41 53 33 28 24 24 24 29 25 25 29 36 35 38 32 23 26 29 27 28 51 33 34 41 62 66 58 61 31 37 16 15 17 21 19 19
22 31 27 23 23 19 19 19 30 51 46 28 29 21 27 29 29 30 31 33 34 34 40 41 35 34 30 28 27 44 35 40 37 80 83 62 74 50 38 16 14 14 15 14 16
24 32 27 28 26 25 20 31 53 57 32 34 32 35 31 34 36 34 38 39 32 37 41 39 29 32 33 35 30 35 54 38 62 83 75 73 73 63 31 15 14 16 18 21 20
22 31 30 29 32 30 29 53 58 42 29 32 34 35 36 36 36 42 46 64 67 59 65 60 39 36 40 52 37 60 79 78 71 80 71 62 67 66 38 37 14 17 20 19 18
24 30 35 37 31 33 48 32 20 33 39 34 34 37 36 39 38 51 50 55 53 67 85 81 68 52 45 64 56 70 84 78 61 76 71 48 68 58 39 21 20 20 21 28 34
28 37 37 40 34 42 45 57 39 44 31 36 38 41 42 45 41 50 57 66 59 77 62 78 66 44 42 40 64 68 75 57 75 93 93 73 63 56 25 23 44 44 39 47 51
33 43 45 41 42 54 58 57 48 31 30 32 38 41 41 49 38 47 58 72 61 66 74 70 78 50 47 47 45 71 78 69 88 68 83 70 80 71 32 28 44 58 60 61 64
44 61 51 40 47 57 68 61 38 26 33 36 41 43 57 45 41 48 56 54 51 42 66 83 78 64 57 73 76 72 78 77 84 88 85 94 81 74 61 58 66 64 66 72 71
54 33 48 39 46 77 54 42 33 31 29 33 40 59 49 40 44 50 47 45 51 45 65 77 79 88 68 78 87 87 78 74 86 80 93 90 84 82 83 74 81 80 80 76 74
79 80 38 40 65 58 45 38 36 35 34 35 36 36 39 38 61 53 47 48 48 53 71 75 83 94 79 79 78 69 78 92 88 83 90 89 82 85 96 78 80 84 74 71 69
77 66 75 72 78 66 55 47 43 36 36 32 35 32 36 39 44 53 50 44 44 39 56 56 80 80 85 75 83 87 88 93 78 89 89 78 68 59 66 72 74 68 69 72 75
88 74 75 91 67 57 59 69 50 43 38 33 40 40 52 54 52 51 42 49 43 40 53 63 74 72 68 68 83 76 74 82 82 70 82 67 72 63 75 76 63 73 75 77 78
91 91 98 84 57 59 72 64 52 49 50 50 46 51 50 59 58 66 44 45 50 54 54 63 80 82 93 75 88 91 77 85 85 77 76 73 75 58 59 82 77 72 77 82 84
62 73 96 94 69 81 82 66 57 50 54 52 54 52 58 52 43 36 35 39 48 79 92 95 82 91 89 77 76 86 68 86 89 92 80 92 71 80 72 80 79 72 75 79 84
Wind_Speed
5 5 7 8 7 8 11 14 14 13 14 13 9 3 3 5 12 23 12 16 17 24 22 14 6 7 3 4 6 2 5 2 5 6 3 3 3 0 1 3 2 4 4 3 15
5 5 6 6 7 9 11 13 13 12 13 12 12 8 2 4 5 16 18 22 20 19 15 11 7 10 4 5 5 5 4 3 2 2 3 3 2 2 1 2 4 2 3 11 18
5 5 5 5 7 9 11 12 11 10 12 11 10 9 6 2 2 5 26 24 19 15 6 4 4 2 5 4 6 4 3 3 2 2 2 3 1 3 2 4 7 7 7 9 12
7 6 6 6 7 9 9 10 9 10 10 10 10 7 5 3 2 10 26 22 16 16 3 3 3 4 5 5 4 6 5 3 3 2 1 1 3 4 6 5 4 7 7 9 7
7 6 6 6 6 7 8 9 9 9 9 8 12 8 3 7 3 18 23 18 12 13 14 4 6 3 5 4 3 4 2 4 2 2 2 1 4 5 8 8 5 6 7 7 6
9 8 6 7 7 8 8 9 9 8 6 4 7 8 4 7 10 21 21 14 17 15 15 11 4 3 6 4 4 2 4 3 1 1 2 3 2 3 4 3 10 7 7 6 6
12 9 8 7 9 10 7 8 8 3 5 3 5 2 9 3 8 21 18 9 12 11 4 8 3 5 3 3 3 5 2 1 3 3 2 2 0 6 5 0 8 9 7 5 8
14 11 9 8 11 6 4 7 5 4 4 4 4 3 3 6 9 23 18 7 7 7 4 6 7 7 5 2 4 3 4 5 2 8 4 4 8 4 4 6 8 8 6 5 6
16 12 10 9 13 3 1 3 9 3 3 4 2 2 3 7 8 19 16 8 8 5 5 5 5 5 6 3 4 7 1 4 7 5 4 5 9 5 4 6 7 7 7 6 7
18 14 9 8 15 5 4 4 2 4 3 2 5 3 6 6 11 18 16 10 3 5 3 8 6 5 6 6 1 4 4 5 5 4 3 6 17 13 9 9 9 9 8 7 7
17 15 10 8 17 4 1 1 3 4 15 4 1 0 5 16 4 18 17 8 3 10 5 6 9 5 3 4 1 0 2 4 5 2 7 2 10 18 10 4 8 9 8 8 8
15 17 13 6 11 4 4 7 2 3 6 3 0 2 3 7 6 11 17 6 7 5 6 6 4 1 3 2 2 1 3 4 7 4 3 5 15 5 6 2 6 9 8 9 4
13 18 14 3 5 14 16 8 5 2 4 2 2 2 4 6 3 9 9 3 6 6 7 6 0 2 1 3 5 0 1 3 5 9 1 8 6 5 1 2 3 5 6 6 9
14 17 13 2 3 4 5 4 2 1 4 8 6 4 3 1 3 3 6 2 7 3 3 6 1 2 1 2 2 4 2 1 5 5 2 5 3 2 4 4 5 3 3 6 6
12 15 10 12 3 4 2 2 2 1 3 4 6 4 6 6 4 6 8 5 3 3 1 2 5 4 2 1 1 4 2 2 1 3 4 5 4 7 4 6 3 1 1 2 1
10 13 12 4 7 4 1 2 1 6 3 5 4 7 4 6 7 6 6 9 1 2 5 2 1 2 2 3 2 4 1 2 3 3 3 4 3 5 1 3 3 3 6 7 7
7 7 18 10 3 3 1 2 5 6 3 5 4 6 2 5 6 7 6 8 4 6 7 4 1 1 3 4 1 6 5 4 5 4 4 3 3 8 4 2 5 7 8 7 5
5 4 13 14 5 2 1 5 5 2 1 3 2 4 3 6 4 7 3 4 6 4 3 3 7 4 5 3 3 3 4 4 4 2 5 1 5 4 2 6 8 8 6 2 5
3 3 7 14 6 2 5 5 5 2 1 5 3 4 4 3 1 4 3 2 2 1 3 4 6 0 3 2 3 1 2 2 5 0 3 3 7 7 7 5 7 7 2 5 7
2 2 8 15 5 2 5 3 2 0 1 1 2 1 2 4 4 5 0 3 2 4 2 2 4 2 2 1 3 3 1 3 3 2 5 5 5 5 7 9 6 5 7 8 8
2 3 10 15 4 6 4 4 2 2 1 1 3 2 2 2 1 2 2 3 3 4 4 3 3 3 2 3 5 2 2 3 2 3 4 3 6 6 8 8 6 3 8 9 8
3 2 11 11 4 2 3 1 1 1 1 0 2 3 3 0 2 2 3 4 6 7 5 3 4 3 6 1 3 3 5 5 4 4 2 3 7 1 4 7 4 6 9 9 5
2 2 6 4 3 2 2 1 1 1 1 0 1 1 3 2 2 4 3 3 5 4 5 6 2 4 7 3 2 2 3 3 3 2 7 3 6 2 2 3 5 6 10 9 10
3 3 4 6 1 5 2 1 1 1 1 1 1 1 0 3 5 3 3 2 4 3 4 4 2 7 9 8 2 4 5 5 4 3 4 13 13 13 11 7 8 12 10 10 10
4 1 2 2 4 2 2 1 1 2 1 1 1 5 6 2 2 6 3 2 2 4 2 2 6 5 12 10 5 9 17 11 13 17 9 20 11 13 7 6 12 7 9 11 12
3 3 2 1 2 2 0 4 5 2 4 3 5 3 8 7 10 7 4 5 5 3 5 1 3 1 4 13 4 8 20 9 14 19 18 25 28 20 19 5 6 11 11 10 8
3 2 3 2 1 3 3 4 6 5 5 6 9 3 6 13 5 3 3 1 3 9 8 5 3 1 4 3 6 11 12 8 5 5 7 6 13 2 4 6 7 9 9 11 9
Wind_Direction
26 16 8 6 12 16 7 2 6 13 17 11 3 329 260 350 24 49 41 336 326 328 333 338 24 23 52 61 36 92 64 141 172 155 167 189 160 320 46 123 205 206 170 229 159
26 15 11 12 14 4 359 357 359 11 17 17 22 28 239 332 22 49 358 344 338 337 341 6 356 354 46 22 19 64 90 173 357 41 159 164 173 178 164 162 239 218 46 134 157
18 8 0 360 356 350 352 354 357 9 15 15 10 19 7 323 82 339 349 348 352 353 329 321 324 351 62 27 4 17 110 150 22 96 42 135 223 328 166 242 223 199 174 163 173
6 357 350 344 344 344 350 353 359 359 0 2 2 349 11 34 39 340 350 354 2 7 78 22 21 50 64 55 10 86 44 86 167 25 54 178 321 309 203 229 217 162 154 173 184
2 358 357 351 350 348 344 347 355 1 360 6 12 15 50 42 348 348 351 2 18 30 46 41 52 58 84 82 69 73 133 60 77 66 306 348 260 245 251 238 166 152 156 165 188
9 358 350 348 343 334 332 340 345 353 5 10 17 27 60 69 345 360 353 7 26 36 41 39 86 76 90 61 62 81 84 101 94 337 347 304 264 20 268 206 226 179 189 192 203
11 359 350 347 346 329 322 335 328 8 29 35 15 47 62 108 355 3 3 10 17 28 43 44 49 77 137 86 126 135 72 48 13 4 355 325 244 225 247 94 185 185 205 209 231
9 5 1 354 346 343 23 28 45 66 35 20 14 53 95 353 0 4 10 32 24 37 55 47 67 97 54 120 53 37 56 9 27 359 11 33 275 248 159 150 176 193 216 228 252
14 6 356 355 353 343 218 19 13 275 13 19 42 64 13 345 2 356 355 350 338 16 42 37 61 74 28 52 25 12 350 349 324 29 322 32 277 262 153 187 199 211 223 232 257
13 5 6 7 358 338 281 275 3 70 7 13 33 31 26 315 318 342 350 349 0 332 27 41 50 64 24 37 208 320 343 322 260 349 2 263 268 286 269 206 218 222 224 230 239
11 6 10 13 8 355 356 152 29 355 38 82 307 210 323 325 326 353 352 337 20 56 39 13 61 47 348 13 23 105 252 263 266 46 346 235 282 295 309 215 205 221 220 231 236
10 11 11 9 21 35 57 72 71 134 82 18 69 345 323 343 358 345 6 56 43 48 340 33 60 296 295 299 313 239 290 289 283 344 355 329 307 295 326 309 196 201 225 233 233
8 10 10 8 35 45 76 87 91 98 87 10 53 19 323 12 62 323 15 358 56 52 27 92 23 303 328 44 16 353 194 319 255 321 245 321 316 6 286 55 112 183 207 204 214
6 9 12 66 92 44 57 66 50 60 75 330 357 11 348 70 44 319 14 54 35 85 85 91 292 350 28 80 21 310 135 278 290 20 285 17 273 307 327 63 64 66 128 176 195
10 11 15 41 89 65 81 26 9 12 50 318 326 325 325 71 301 7 28 26 67 38 69 324 360 12 60 336 142 262 340 261 95 74 37 336 68 267 330 44 19 76 226 230 323
15 23 21 26 54 61 47 31 47 43 264 345 335 351 25 19 356 317 29 36 80 103 43 105 113 61 298 292 231 327 22 86 57 110 27 260 98 286 206 140 104 57 53 49 44
12 35 34 37 31 7 42 56 37 98 358 327 337 14 352 335 356 29 30 13 47 31 12 343 62 23 25 342 52 31 45 339 357 8 223 192 22 243 261 341 143 104 64 41 350
17 49 28 26 14 23 58 56 77 171 257 2 333 323 39 7 21 8 57 39 47 41 65 54 330 23 356 115 195 20 128 142 252 272 281 3 239 243 189 111 90 83 96 64 323
28 60 27 2 10 38 73 56 193 184 350 352 324 50 342 17 340 50 55 173 231 67 111 30 280 156 39 65 108 306 53 184 104 45 42 243 286 314 151 141 119 125 154 284 286
32 64 18 359 3 55 72 160 193 218 315 186 75 79 310 305 15 41 280 222 196 185 174 190 313 137 122 97 42 116 174 37 8 334 291 283 278 234 195 197 202 25 348 309 278
39 54 358 353 18 49 111 203 183 216 211 63 188 239 223 290 304 295 225 197 196 166 109 130 109 280 127 189 181 29 4 32 131 137 205 290 260 218 209 175 191 247 294 280 282
43 40 351 353 44 36 91 157 148 191 302 21 90 130 209 299 268 269 245 212 160 155 146 214 145 274 255 220 169 160 193 154 141 255 189 173 266 253 201 183 185 263 276 274 299
69 277 348 9 84 28 275 65 123 159 226 193 233 217 198 242 334 218 232 103 153 155 172 180 184 312 306 6 18 195 224 132 116 82 204 187 259 345 315 266 280 277 298 316 328
69 25 338 43 58 122 153 208 248 124 228 159 194 99 160 249 217 288 252 179 190 197 163 167 172 196 251 245 145 250 213 203 167 208 225 228 265 279 271 283 305 313 304 310 298
33 264 184 325 350 66 97 250 228 241 250 190 212 220 175 261 256 226 219 152 166 214 135 184 232 194 268 281 216 252 260 218 205 239 218 269 228 255 249 261 291 273 288 288 283
102 110 5 237 312 330 58 226 198 202 156 225 213 208 179 205 207 253 193 188 206 116 170 168 270 127 257 264 256 259 260 239 218 240 254 259 273 271 278 294 287 271 275 273 277
72 98 107 263 123 90 234 218 216 150 240 218 208 186 214 238 229 240 232 248 180 156 186 177 240 269 258 10 308 282 258 172 187 216 170 179 233 167 278 258 250 271 286 284 281